When you browse on this site, cookies collect data to enhance your experience and personalize the content and advertising you see.
Visit our Privacy Policy to learn more. By continuing to use the site, you agree to this use of cookies and data.
  • Em Portugal
  • Lista de países
  • Para 7 dias
  • Temperatura da água
  • Mapas de satélite
  • Mapa do tempo
  • Widgets de tempo
  • user-avatar
    Iniciar Sessão

    Previsão horária em Salta

    Hoje, 21 Janeiro, Segunda-feira

    Tempo Temperatura Precipitação Vento Pressão Humidade
    00:00 +19°C° 0 mm 1 m/s 650 mmHg 92%
    01:00 +19°C° 0 mm 1 m/s 649 mmHg 93%
    02:00 +19°C° 0 mm 1 m/s 649 mmHg 95%
    03:00 +17°C° 0 mm 0 m/s 649 mmHg 95%
    04:00 +17°C° 0 mm 0 m/s 649 mmHg 95%
    05:00 +17°C° 0 mm 0 m/s 649 mmHg 95%
    06:00 +18°C° 0 mm 0 m/s 650 mmHg 89%
    07:00 +21°C° 0 mm 1 m/s 651 mmHg 83%
    08:00 +22°C° 0 mm 1 m/s 651 mmHg 83%
    09:00 +24°C° 0 mm 1 m/s 652 mmHg 78%
    10:00 +25°C° 0 mm 1 m/s 652 mmHg 73%
    11:00 +26°C° 0 mm 2 m/s 652 mmHg 67%
    12:00 +28°C° 0 mm 2 m/s 652 mmHg 59%
    13:00 +30°C° 0 mm 2 m/s 652 mmHg 51%
    14:00 +32°C° 0 mm 2 m/s 653 mmHg 43%
    15:00 +31°C° 0 mm 2 m/s 652 mmHg 44%
    16:00 +31°C° 0 mm 2 m/s 652 mmHg 44%
    17:00 +31°C° 0 mm 2 m/s 652 mmHg 44%
    18:00 +28°C° 0 mm 2 m/s 652 mmHg 53%
    19:00 +26°C° 0 mm 1 m/s 652 mmHg 61%
    20:00 +24°C° 0 mm 1 m/s 651 mmHg 69%
    21:00 +23°C° 0 mm 1 m/s 652 mmHg 71%
    22:00 +23°C° 0 mm 1 m/s 652 mmHg 72%
    23:00 +22°C° 0 mm 1 m/s 653 mmHg 73%

    Amanhã, 22 Janeiro, Terça-feira

    Tempo Temperatura Precipitação Vento Pressão Humidade
    00:00 +22°C° 0 mm 1 m/s 652 mmHg 73%
    01:00 +22°C° 0 mm 1 m/s 652 mmHg 74%
    02:00 +22°C° 0 mm 1 m/s 651 mmHg 74%
    03:00 +22°C° 0 mm 1 m/s 651 mmHg 73%
    04:00 +22°C° 0 mm 1 m/s 651 mmHg 72%
    05:00 +21°C° 0 mm 1 m/s 650 mmHg 71%
    06:00 +23°C° 0 mm 1 m/s 651 mmHg 66%
    07:00 +25°C° 0 mm 1 m/s 652 mmHg 61%
    08:00 +26°C° 0 mm 1 m/s 652 mmHg 56%
    09:00 +28°C° 0 mm 2 m/s 653 mmHg 52%
    10:00 +30°C° 0 mm 3 m/s 653 mmHg 47%
    11:00 +33°C° 0 mm 3 m/s 653 mmHg 43%
    12:00 +34°C° 0 mm 4 m/s 653 mmHg 40%
    13:00 +34°C° 0 mm 4 m/s 653 mmHg 38%
    14:00 +35°C° 0 mm 4 m/s 652 mmHg 36%
    15:00 +35°C° 0 mm 4 m/s 652 mmHg 37%
    16:00 +34°C° 0 mm 4 m/s 651 mmHg 38%
    17:00 +34°C° 0 mm 4 m/s 650 mmHg 39%
    18:00 +30°C° 0 mm 3 m/s 650 mmHg 47%
    19:00 +28°C° 0 mm 2 m/s 650 mmHg 55%
    20:00 +25°C° 0 mm 1 m/s 650 mmHg 63%
    21:00 +25°C° 0 mm 1 m/s 651 mmHg 63%
    22:00 +25°C° 0 mm 1 m/s 651 mmHg 64%
    23:00 +24°C° 0 mm 1 m/s 652 mmHg 64%

    Depois de amanhã, 23 Janeiro, Quarta-feira

    Tempo Temperatura Precipitação Vento Pressão Humidade
    00:00 +24°C° 0 mm 1 m/s 651 mmHg 64%
    01:00 +24°C° 0 mm 1 m/s 651 mmHg 64%
    02:00 +24°C° 0 mm 1 m/s 651 mmHg 64%
    03:00 +24°C° 0 mm 1 m/s 651 mmHg 64%
    04:00 +24°C° 0 mm 1 m/s 651 mmHg 64%
    05:00 +23°C° 0 mm 1 m/s 651 mmHg 64%
    06:00 +25°C° 0 mm 1 m/s 652 mmHg 60%
    07:00 +26°C° 0 mm 1 m/s 653 mmHg 56%
    08:00 +28°C° 0 mm 1 m/s 654 mmHg 52%
    09:00 +30°C° 0 mm 1 m/s 654 mmHg 46%
    10:00 +32°C° 0 mm 2 m/s 655 mmHg 41%
    11:00 +35°C° 0 mm 2 m/s 656 mmHg 35%
    12:00 +35°C° 0 mm 2 m/s 655 mmHg 34%
    13:00 +36°C° 0 mm 3 m/s 655 mmHg 32%
    14:00 +37°C° 0 mm 3 m/s 654 mmHg 31%
    15:00 +36°C° 0 mm 3 m/s 653 mmHg 32%
    16:00 +36°C° 0 mm 3 m/s 653 mmHg 33%
    17:00 +35°C° 0 mm 3 m/s 652 mmHg 35%
    18:00 +33°C° 0 mm 3 m/s 652 mmHg 42%
    19:00 +29°C° 0 mm 2 m/s 652 mmHg 49%
    20:00 +26°C° 0 mm 1 m/s 651 mmHg 56%
    21:00 +26°C° 0 mm 1 m/s 652 mmHg 58%
    22:00 +25°C° 0 mm 1 m/s 652 mmHg 59%
    23:00 +25°C° 0 mm 2 m/s 653 mmHg 61%

    24 Janeiro, Quinta-feira

    Tempo Temperatura Precipitação Vento Pressão Humidade
    00:00 +25°C° 0.1 mm 2 m/s 653 mmHg 61%
    01:00 +24°C° 0.1 mm 1 m/s 652 mmHg 60%
    02:00 +24°C° 0.1 mm 1 m/s 652 mmHg 60%
    03:00 +24°C° 0.1 mm 1 m/s 652 mmHg 60%
    04:00 +24°C° 0.1 mm 1 m/s 651 mmHg 60%
    05:00 +24°C° 0.1 mm 1 m/s 651 mmHg 59%
    06:00 +25°C° 0.1 mm 1 m/s 652 mmHg 57%
    07:00 +26°C° 0.1 mm 1 m/s 653 mmHg 54%
    08:00 +28°C° 0.1 mm 1 m/s 653 mmHg 51%
    09:00 +29°C° 0 mm 2 m/s 654 mmHg 47%
    10:00 +31°C° 0 mm 2 m/s 654 mmHg 43%
    11:00 +34°C° 0 mm 3 m/s 655 mmHg 39%
    12:00 +35°C° 0 mm 4 m/s 654 mmHg 37%
    13:00 +36°C° 0 mm 4 m/s 654 mmHg 35%
    14:00 +37°C° 0 mm 4 m/s 653 mmHg 33%
    15:00 +36°C° 0.2 mm 4 m/s 652 mmHg 34%
    16:00 +36°C° 0.2 mm 4 m/s 652 mmHg 35%
    17:00 +35°C° 0.2 mm 4 m/s 651 mmHg 36%
    18:00 +33°C° 0.1 mm 3 m/s 651 mmHg 41%
    19:00 +30°C° 0.1 mm 2 m/s 652 mmHg 46%
    20:00 +27°C° 0.1 mm 1 m/s 652 mmHg 51%
    21:00 +27°C° 0.2 mm 1 m/s 652 mmHg 52%
    22:00 +27°C° 0.2 mm 2 m/s 653 mmHg 53%
    23:00 +26°C° 0.2 mm 2 m/s 653 mmHg 54%

    25 Janeiro, Sexta-feira

    Tempo Temperatura Precipitação Vento Pressão Humidade
    00:00 +26°C° 0 mm 2 m/s 652 mmHg 54%
    01:00 +26°C° 0 mm 2 m/s 652 mmHg 54%
    02:00 +25°C° 0 mm 2 m/s 651 mmHg 54%
    03:00 +25°C° 0 mm 2 m/s 651 mmHg 54%
    04:00 +25°C° 0 mm 1 m/s 650 mmHg 54%
    05:00 +25°C° 0 mm 1 m/s 649 mmHg 54%
    06:00 +26°C° 0 mm 1 m/s 650 mmHg 51%
    07:00 +27°C° 0 mm 1 m/s 651 mmHg 48%
    08:00 +29°C° 0 mm 1 m/s 651 mmHg 45%
    09:00 +30°C° 0 mm 2 m/s 652 mmHg 41%
    10:00 +33°C° 0 mm 3 m/s 652 mmHg 37%
    11:00 +35°C° 0 mm 4 m/s 653 mmHg 33%
    12:00 +35°C° 0 mm 4 m/s 652 mmHg 31%
    13:00 +36°C° 0 mm 4 m/s 652 mmHg 30%
    14:00 +37°C° 0 mm 4 m/s 651 mmHg 28%
    15:00 +37°C° 0 mm 4 m/s 651 mmHg 29%
    16:00 +37°C° 0 mm 3 m/s 651 mmHg 29%
    17:00 +36°C° 0 mm 3 m/s 651 mmHg 29%
    18:00 +34°C° 0 mm 2 m/s 651 mmHg 34%
    19:00 +31°C° 0 mm 2 m/s 651 mmHg 39%
    20:00 +28°C° 0 mm 1 m/s 651 mmHg 44%
    21:00 +28°C° 0 mm 1 m/s 651 mmHg 45%
    22:00 +27°C° 0 mm 1 m/s 651 mmHg 46%
    23:00 +27°C° 0 mm 1 m/s 652 mmHg 47%

    26 Janeiro, Sábado

    Tempo Temperatura Precipitação Vento Pressão Humidade
    00:00 +26°C° 0 mm 1 m/s 651 mmHg 48%
    01:00 +26°C° 0 mm 1 m/s 651 mmHg 49%
    02:00 +25°C° 0 mm 1 m/s 650 mmHg 49%
    03:00 +25°C° 0 mm 1 m/s 650 mmHg 50%
    04:00 +25°C° 0 mm 1 m/s 650 mmHg 50%
    05:00 +24°C° 0 mm 1 m/s 650 mmHg 51%
    06:00 +26°C° 0 mm 1 m/s 650 mmHg 48%
    07:00 +27°C° 0 mm 1 m/s 651 mmHg 45%
    08:00 +27°C° 0 mm 0 m/s 652 mmHg 42%
    09:00 +30°C° 0 mm 1 m/s 653 mmHg 39%
    10:00 +32°C° 0 mm 1 m/s 654 mmHg 36%
    11:00 +34°C° 0 mm 2 m/s 654 mmHg 33%
    12:00 +35°C° 0 mm 2 m/s 654 mmHg 32%
    13:00 +35°C° 0 mm 3 m/s 653 mmHg 30%
    14:00 +36°C° 0 mm 3 m/s 653 mmHg 29%
    15:00 +36°C° 0 mm 3 m/s 653 mmHg 31%
    16:00 +35°C° 0 mm 2 m/s 652 mmHg 32%
    17:00 +35°C° 0 mm 2 m/s 652 mmHg 33%
    18:00 +31°C° 0.6 mm 2 m/s 652 mmHg 45%
    19:00 +28°C° 0.6 mm 2 m/s 651 mmHg 57%
    20:00 +25°C° 0.6 mm 2 m/s 651 mmHg 68%
    21:00 +24°C° 0.8 mm 2 m/s 651 mmHg 69%
    22:00 +24°C° 0.8 mm 1 m/s 652 mmHg 70%
    23:00 +23°C° 0.8 mm 1 m/s 652 mmHg 71%
    Mostrar mais